Regional Weather Roundup
Issued by NWS

Home | Current Version | Previous Version | Graphics & Text | Print | Product List | Glossary Off
Versions: 1 2 3 4 5 6 7 8 9 10 11 12 13 14 15 16 17 18 19 20 21 22 23 24 25 26 27 28 29 30 31 32 33 34 35 36 37 38 39 40 41 42 43 44 45 46 47 48 49 50

000
ASUS45 KBOU 042107
RWRCO

WEATHER ROUNDUP FOR COLORADO
NATIONAL WEATHER SERVICE DENVER/BOULDER CO
200 PM MST WED MAR 04 2015

NOTE: "FAIR" INDICATES FEW OR NO CLOUDS BELOW 12000 FEET WITH NO
SIGNIFICANT WEATHER AND/OR OBSTRUCTIONS TO VISIBILITY.

COZ001>005-013-030-031-042200-
...NORTHWEST COLORADO...

CITY           SKY/WX    TMP DP  RH WIND       PRES   REMARKS
CRAIG          MOSUNNY   24  10  55 NW12      30.10S WCI  13
HAYDEN         CLOUDY    21  12  68 W13       30.07S VSB 1   WCI   9
MEEKER         MIX PCPN  27  14  58 NW16      30.07S WCI  15
MOUNT WERNER   NOT AVBL
STEAMBOAT SPGS CLOUDY    19  10  68 W13G22    30.03F WCI   6
WALDEN         CLOUDY    14   5  67 NW16      29.96S WCI  -2
$$

COZ006>008-011-042200-
...WEST CENTRAL VALLEYS...

CITY           SKY/WX    TMP DP  RH WIND       PRES   REMARKS
GRAND JUNCTION PTSUNNY   39  17  41 NE8G18    30.08F
MONTROSE       PTSUNNY   37  14  38 NW17G25   30.06F
EAGLE          PTSUNNY   27   9  46 NW13      30.04S WCI  16
RIFLE          CLOUDY    32  13  45 NW13G23   30.08S WCI  22
DELTA          NOT AVBL
NUCLA          CLOUDY    36  18  48 NW13      30.07F
$$

COZ017>023-064>068-042200-
...SOUTHWEST COLORADO...

CITY           SKY/WX    TMP DP  RH WIND       PRES   REMARKS
DURANGO        SUNNY     36  14  40 W17       29.91F
CORTEZ         SUNNY     38  19  46 NW15      30.03S
PAGOSA SPRINGS CLOUDY    32  17  52 W14       29.90F WCI  22
TELLURIDE      MOSUNNY   24   0  36 NW8       29.97S WCI  14
WOLF CREEK PAS CLOUDY    12  10  92 MISG      29.86F
$$

COZ009-010-012-014-032>034-037-058>063-042200-
...CENTRAL COLORADO...

CITY           SKY/WX    TMP DP  RH WIND       PRES   REMARKS
ASPEN          LGT SNOW  22  10  60 N18G26    29.97S WCI   7
BUENA VISTA    PTSUNNY   23  11  60 SE9G18    29.89F WCI  13
COPPER MTN     NOT AVBL
BERTHOUD PASS  CLOUDY    -2  -9  71 NW36G48   29.71S WCI -31
COTTONWOOD PAS PTSUNNY   23  -6  28 W7G30     29.84F WCI  15
GUNNISON       CLOUDY    25  10  54 W9        29.98S WCI  15
KREMMLING      PTSUNNY   23   1  39 NW15G25   30.00S WCI  10
LEADVILLE      CLOUDY    12   0  58 NW21G30   29.86S BLWGSNOWWCI  -7
SALIDA         CLOUDY    25  15  66 E7        29.98F WCI  17
SUNLIGHT       PTSUNNY   12   9  85 W5          N/A  WCI   4
WILKERSON PASS CLOUDY    10   3  72 NW8G17    29.83S HAZE    WCI  -1
$$

COZ069>075-042200-
...SAN LUIS VALLEY/SANGRE DE CRISTO MOUNTAINS...

CITY           SKY/WX    TMP DP  RH WIND       PRES   REMARKS
ALAMOSA        MOSUNNY   36  13  38 NW9       29.84F
LA VETA PASS   SNOW      12   3  67 N7        29.81F VSB 1/2 WCI   2
SAGUACHE       MOSUNNY   32   9  37 NW30G38   29.88F WCI  18
$$

COZ035-036-038>040-042200-
...NORTHERN COLORADO FRONT RANGE...

CITY           SKY/WX    TMP DP  RH WIND       PRES   REMARKS
DENVER INTL AP PTSUNNY   16   5  62 SE8       30.10F WCI   5
DMNS CITY PARK   N/A     18   7  61 NE6G12    30.11S WCI  10
AURORA         PTSUNNY   16   6  64 E7        30.10F WCI   6
FRONT RANGE AP NOT AVBL
ERIE MUNI ARPT CLOUDY    19  10  70 E6        30.13F WCI  10
BOULDER MUN AP LGT SNOW  18  12  79 NE3       30.12S VSB 1
CENTENNIAL     CLOUDY    16   6  65 E7        30.07S WCI   6
BROOMFIELD     NOT AVBL
FORT COLLINS   PTSUNNY   18  10  73 CALM      30.15F
LONGMONT       MOSUNNY   26   8  47 SW6       30.15F WCI  19
$$

COZ041-046-047-076>085-087-088-042200-
...PIKES PEAK/PALMER DIVIDE AND SOUTHERN FOOTHILLS...

CITY           SKY/WX    TMP DP  RH WIND       PRES   REMARKS
COLO. SPRINGS  LGT SNOW  14   8  77 SE9       30.06F FOG     WCI   2
A. F. ACADEMY  LGT SNOW  12   5  73 S10       30.02S WCI  -1
ELLICOTT       NOT AVBL
FALCON         LGT SNOW  14   6  70 SE7       30.03S WCI   4
FORT CARSON    SNOWSHWR  15   9  77 SE12      30.06F FOG     WCI   1
LIMON          SUNNY     17   2  51 CALM      30.12F
MONUMENT HILL  LGT SNOW  14   7  73 SE7       29.99S WCI   4
TRINIDAD       LGT SNOW  17  12  80 NE10      30.06F WCI   5
$$

COZ042>045-048>051-090-091-042200-
...NORTHEAST COLORADO...

CITY           SKY/WX    TMP DP  RH WIND       PRES   REMARKS
GREELEY ARPT   SUNNY     25   7  46 S5        30.14F WCI  19
AKRON          MOSUNNY   22   3  44 N5        30.13F WCI  16
BURLINGTON     SUNNY     25   6  44 N12       30.16F WCI  14
WRAY           MOSUNNY   30   5  35 N12G17    30.18F WCI  21
STERLING       SUNNY     28   9  43 W9        30.16F WCI  20
HOLYOKE        NOT AVBL
FORT MORGAN    MOSUNNY   25   6  45 W7        30.15F WCI  17
$$

COZ086-089-092>099-042200-
...SOUTHEAST COLORADO...

CITY           SKY/WX    TMP DP  RH WIND       PRES   REMARKS
PUEBLO         CLOUDY    20  14  77 SE12      30.14F WCI   8
LA JUNTA       LGT SNOW  20  14  77 NE12      30.19F WCI   8
LAMAR          LGT SNOW  21  16  81 CALM      30.19F
SPRINGFIELD      N/A     20  15  81 NE13      30.13F WCI   7
$$



USA.gov is the U.S. government's official web portal to all federal, state and local government web resources and services.